Time,TemperatureF,DewpointF,PressureIn,WindDirection,WindDirectionDegrees,WindSpeedMPH,WindSpeedGustMPH,Humidity,HourlyPrecipIn,Conditions,Clouds,dailyrainin,SolarRadiationWatts/m^2,SoftwareType,DateUTC
2013-06-17 00:02:00,55.0,55.0,-100.00,NNE,20,6.0,9.0,100,0.00,,,0.00,0.000000,,2013-06-17 10:02:00,
2013-06-17 00:12:00,55.0,55.0,-100.00,NNE,20,6.0,9.0,100,0.00,,,0.00,0.000000,,2013-06-17 10:12:00,
2013-06-17 00:22:00,55.0,55.0,-100.00,NNE,20,6.0,9.0,100,0.00,,,0.00,0.000000,,2013-06-17 10:22:00,
2013-06-17 00:33:00,55.0,55.0,-100.00,NNE,20,6.0,9.0,100,0.00,,,0.00,0.000000,,2013-06-17 10:33:00,
2013-06-17 01:02:00,53.0,53.0,-100.00,North,6,5.0,11.0,100,0.00,,,0.00,0.000000,,2013-06-17 11:02:00,
2013-06-17 01:11:00,53.0,53.0,-100.00,North,6,5.0,11.0,100,0.00,,,0.00,0.000000,,2013-06-17 11:11:00,
2013-06-17 01:23:00,53.0,53.0,-100.00,North,6,5.0,11.0,100,0.00,,,0.00,0.000000,,2013-06-17 11:23:00,
2013-06-17 01:33:00,53.0,53.0,-100.00,North,6,5.0,11.0,100,0.00,,,0.00,0.000000,,2013-06-17 11:33:00,
2013-06-17 02:02:00,54.0,54.0,-100.00,NNE,18,3.0,10.0,100,0.00,,,0.00,0.000000,,2013-06-17 12:02:00,
2013-06-17 02:11:00,54.0,54.0,-100.00,NNE,18,3.0,10.0,100,0.00,,,0.00,0.000000,,2013-06-17 12:11:00,
2013-06-17 02:22:00,54.0,54.0,-100.00,NNE,18,3.0,10.0,100,0.00,,,0.00,0.000000,,2013-06-17 12:22:00,
2013-06-17 02:33:00,54.0,54.0,-100.00,NNE,18,3.0,10.0,100,0.00,,,0.00,0.000000,,2013-06-17 12:33:00,
2013-06-17 03:01:00,54.0,54.0,-100.00,North,1,4.0,10.0,100,0.00,,,0.00,0.000000,,2013-06-17 13:01:00,
2013-06-17 03:11:00,54.0,54.0,-100.00,North,1,4.0,10.0,100,0.00,,,0.00,0.000000,,2013-06-17 13:11:00,
2013-06-17 03:22:00,54.0,54.0,-100.00,North,1,4.0,10.0,100,0.00,,,0.00,0.000000,,2013-06-17 13:22:00,
2013-06-17 03:32:00,54.0,54.0,-100.00,North,1,4.0,10.0,100,0.00,,,0.00,0.000000,,2013-06-17 13:32:00,
2013-06-17 03:34:00,55.0,55.0,-100.00,NNE,15,3.0,9.0,100,0.00,,,0.00,0.000000,,2013-06-17 13:34:00,
2013-06-17 04:02:00,55.0,55.0,-100.00,NNE,15,3.0,9.0,100,0.00,,,0.00,0.000000,,2013-06-17 14:02:00,
2013-06-17 04:11:00,55.0,55.0,-100.00,NNE,15,3.0,9.0,100,0.00,,,0.00,0.000000,,2013-06-17 14:11:00,
2013-06-17 04:22:00,55.0,55.0,-100.00,NNE,15,3.0,9.0,100,0.00,,,0.00,0.000000,,2013-06-17 14:22:00,
2013-06-17 05:01:00,54.0,54.0,-100.00,North,2,3.0,6.0,99,0.01,,,0.01,0.000000,,2013-06-17 15:01:00,
2013-06-17 05:12:00,54.0,54.0,-100.00,North,2,3.0,6.0,99,0.01,,,0.01,0.000000,,2013-06-17 15:12:00,
2013-06-17 05:22:00,54.0,54.0,-100.00,North,2,3.0,6.0,99,0.01,,,0.01,0.000000,,2013-06-17 15:22:00,
2013-06-17 05:33:00,54.0,54.0,-100.00,North,2,3.0,6.0,99,0.01,,,0.01,0.000000,,2013-06-17 15:33:00,
2013-06-17 06:02:00,54.0,54.0,-100.00,NNE,29,4.0,7.0,100,0.00,,,0.01,0.000000,,2013-06-17 16:02:00,
2013-06-17 06:11:00,54.0,54.0,-100.00,NNE,29,4.0,7.0,100,0.00,,,0.01,0.000000,,2013-06-17 16:11:00,
2013-06-17 06:22:00,54.0,54.0,-100.00,NNE,29,4.0,7.0,100,0.00,,,0.01,0.000000,,2013-06-17 16:22:00,
2013-06-17 06:33:00,54.0,54.0,-100.00,NNE,29,4.0,7.0,100,0.00,,,0.01,0.000000,,2013-06-17 16:33:00,
2013-06-17 06:54:00,55.0,55.0,-100.00,NE,35,5.0,12.0,100,0.00,,,0.01,32.000000,,2013-06-17 16:54:00,
2013-06-17 07:02:00,55.0,55.0,-100.00,NE,35,5.0,12.0,100,0.00,,,0.01,32.000000,,2013-06-17 17:02:00,
2013-06-17 07:11:00,55.0,55.0,-100.00,NE,35,5.0,12.0,100,0.00,,,0.01,32.000000,,2013-06-17 17:11:00,
2013-06-17 07:22:00,55.0,55.0,-100.00,NE,35,5.0,12.0,100,0.00,,,0.01,32.000000,,2013-06-17 17:22:00,
2013-06-17 07:33:00,55.0,55.0,-100.00,NE,35,5.0,12.0,100,0.00,,,0.01,32.000000,,2013-06-17 17:33:00,
2013-06-17 08:02:00,56.0,56.0,-100.00,NE,37,7.0,10.0,99,0.00,,,0.01,238.000000,,2013-06-17 18:02:00,
2013-06-17 08:12:00,56.0,56.0,-100.00,NE,37,7.0,10.0,99,0.00,,,0.01,238.000000,,2013-06-17 18:12:00,
2013-06-17 08:23:00,56.0,56.0,-100.00,NE,37,7.0,10.0,99,0.00,,,0.01,238.000000,,2013-06-17 18:23:00,
2013-06-17 08:33:00,56.0,56.0,-100.00,NE,37,7.0,10.0,99,0.00,,,0.01,238.000000,,2013-06-17 18:33:00,
2013-06-17 08:53:00,60.0,57.0,-100.00,NE,34,8.0,13.0,89,0.00,,,0.01,466.000000,,2013-06-17 18:53:00,
2013-06-17 09:02:00,60.0,57.0,-100.00,NE,34,8.0,13.0,89,0.00,,,0.01,466.000000,,2013-06-17 19:02:00,
2013-06-17 09:11:00,60.0,57.0,-100.00,NE,34,8.0,13.0,89,0.00,,,0.01,466.000000,,2013-06-17 19:11:00,
2013-06-17 09:22:00,60.0,57.0,-100.00,NE,34,8.0,13.0,89,0.00,,,0.01,466.000000,,2013-06-17 19:22:00,
2013-06-17 09:33:00,60.0,57.0,-100.00,NE,34,8.0,13.0,89,0.00,,,0.01,466.000000,,2013-06-17 19:33:00,
2013-06-17 09:54:00,63.0,57.0,-100.00,NE,53,9.0,17.0,81,0.00,,,0.01,721.000000,,2013-06-17 19:54:00,
2013-06-17 10:02:00,63.0,57.0,-100.00,NE,53,9.0,17.0,81,0.00,,,0.01,721.000000,,2013-06-17 20:02:00,
2013-06-17 10:11:00,63.0,57.0,-100.00,NE,53,9.0,17.0,81,0.00,,,0.01,721.000000,,2013-06-17 20:11:00,
2013-06-17 10:22:00,63.0,57.0,-100.00,NE,53,9.0,17.0,81,0.00,,,0.01,721.000000,,2013-06-17 20:22:00,
2013-06-17 10:33:00,63.0,57.0,-100.00,NE,53,9.0,17.0,81,0.00,,,0.01,721.000000,,2013-06-17 20:33:00,
2013-06-17 11:01:00,64.0,56.0,-100.00,ENE,69,7.0,15.0,76,0.00,,,0.01,855.000000,,2013-06-17 21:01:00,
2013-06-17 11:12:00,64.0,56.0,-100.00,ENE,69,7.0,15.0,76,0.00,,,0.01,855.000000,,2013-06-17 21:12:00,
2013-06-17 11:22:00,64.0,56.0,-100.00,ENE,69,7.0,15.0,76,0.00,,,0.01,855.000000,,2013-06-17 21:22:00,
2013-06-17 11:33:00,64.0,56.0,-100.00,ENE,69,7.0,15.0,76,0.00,,,0.01,855.000000,,2013-06-17 21:33:00,
2013-06-17 13:02:00,68.0,53.0,-100.00,NE,43,11.0,15.0,59,0.00,,,0.01,1324.000000,,2013-06-17 23:02:00,
2013-06-17 13:11:00,68.0,53.0,-100.00,NE,43,11.0,15.0,59,0.00,,,0.01,1324.000000,,2013-06-17 23:11:00,
2013-06-17 13:22:00,68.0,53.0,-100.00,NE,43,11.0,15.0,59,0.00,,,0.01,1324.000000,,2013-06-17 23:22:00,
2013-06-17 13:32:00,68.0,53.0,-100.00,NE,43,11.0,15.0,59,0.00,,,0.01,1324.000000,,2013-06-17 23:32:00,
2013-06-17 13:53:00,70.0,54.0,-100.00,NE,46,9.0,22.0,57,0.00,,,0.01,1299.000000,,2013-06-17 23:53:00,
2013-06-17 14:01:00,70.0,54.0,-100.00,NE,46,9.0,22.0,57,0.00,,,0.01,1299.000000,,2013-06-18 00:01:00,
2013-06-17 14:12:00,70.0,54.0,-100.00,NE,46,9.0,22.0,57,0.00,,,0.01,1299.000000,,2013-06-18 00:12:00,
2013-06-17 14:22:00,70.0,54.0,-100.00,NE,46,9.0,22.0,57,0.00,,,0.01,1299.000000,,2013-06-18 00:22:00,
2013-06-17 14:32:00,70.0,54.0,-100.00,NE,46,9.0,22.0,57,0.00,,,0.01,1299.000000,,2013-06-18 00:32:00,
2013-06-17 15:01:00,70.0,56.0,-100.00,ENE,63,7.0,19.0,62,0.00,,,0.01,903.000000,,2013-06-18 01:01:00,
2013-06-17 15:11:00,70.0,56.0,-100.00,ENE,63,7.0,19.0,62,0.00,,,0.01,903.000000,,2013-06-18 01:11:00,
2013-06-17 15:23:00,70.0,56.0,-100.00,ENE,63,7.0,19.0,62,0.00,,,0.01,903.000000,,2013-06-18 01:23:00,
2013-06-17 15:33:00,70.0,56.0,-100.00,ENE,63,7.0,19.0,62,0.00,,,0.01,903.000000,,2013-06-18 01:33:00,
2013-06-17 15:34:00,66.0,54.0,-100.00,NE,37,10.0,16.0,66,0.00,,,0.01,748.000000,,2013-06-18 01:34:00,
2013-06-17 16:02:00,66.0,54.0,-100.00,NE,37,10.0,16.0,66,0.00,,,0.01,748.000000,,2013-06-18 02:02:00,
2013-06-17 16:11:00,66.0,54.0,-100.00,NE,37,10.0,16.0,66,0.00,,,0.01,748.000000,,2013-06-18 02:11:00,
2013-06-17 16:22:00,66.0,54.0,-100.00,NE,37,10.0,16.0,66,0.00,,,0.01,748.000000,,2013-06-18 02:22:00,
2013-06-17 16:53:00,66.0,53.0,-100.00,NNE,32,12.0,18.0,64,0.00,,,0.01,690.000000,,2013-06-18 02:53:00,
2013-06-17 17:02:00,66.0,53.0,-100.00,NNE,32,12.0,18.0,64,0.00,,,0.01,690.000000,,2013-06-18 03:02:00,
2013-06-17 17:12:00,66.0,53.0,-100.00,NNE,32,12.0,18.0,64,0.00,,,0.01,690.000000,,2013-06-18 03:12:00,
2013-06-17 17:23:00,66.0,53.0,-100.00,NNE,32,12.0,18.0,64,0.00,,,0.01,690.000000,,2013-06-18 03:23:00,
2013-06-17 17:33:00,66.0,53.0,-100.00,NNE,32,12.0,18.0,64,0.00,,,0.01,690.000000,,2013-06-18 03:33:00,
2013-06-17 17:34:00,64.0,54.0,-100.00,NNE,25,12.0,24.0,70,0.00,,,0.01,675.000000,,2013-06-18 03:34:00,
2013-06-17 17:53:00,64.0,54.0,-100.00,NNE,25,12.0,24.0,70,0.00,,,0.01,675.000000,,2013-06-18 03:53:00,
2013-06-17 18:01:00,64.0,54.0,-100.00,NNE,25,12.0,24.0,70,0.00,,,0.01,675.000000,,2013-06-18 04:01:00,
2013-06-17 18:11:00,64.0,54.0,-100.00,NNE,25,12.0,24.0,70,0.00,,,0.01,675.000000,,2013-06-18 04:11:00,
2013-06-17 18:22:00,64.0,54.0,-100.00,NNE,25,12.0,24.0,70,0.00,,,0.01,675.000000,,2013-06-18 04:22:00,
2013-06-17 19:02:00,58.0,53.0,-100.00,NNE,12,8.0,23.0,83,0.00,,,0.01,127.000000,,2013-06-18 05:02:00,
2013-06-17 19:12:00,58.0,53.0,-100.00,NNE,12,8.0,23.0,83,0.00,,,0.01,127.000000,,2013-06-18 05:12:00,
2013-06-17 19:22:00,58.0,53.0,-100.00,NNE,12,8.0,23.0,83,0.00,,,0.01,127.000000,,2013-06-18 05:22:00,
2013-06-17 19:33:00,58.0,53.0,-100.00,NNE,12,8.0,23.0,83,0.00,,,0.01,127.000000,,2013-06-18 05:33:00,
2013-06-17 20:02:00,54.0,54.0,-100.00,NNE,25,8.0,15.0,99,0.00,,,0.01,7.000000,,2013-06-18 06:02:00,
2013-06-17 20:11:00,54.0,54.0,-100.00,NNE,25,8.0,15.0,99,0.00,,,0.01,7.000000,,2013-06-18 06:11:00,
2013-06-17 20:23:00,54.0,54.0,-100.00,NNE,25,8.0,15.0,99,0.00,,,0.01,7.000000,,2013-06-18 06:23:00,
2013-06-17 20:32:00,54.0,54.0,-100.00,NNE,25,8.0,15.0,99,0.00,,,0.01,7.000000,,2013-06-18 06:32:00,
2013-06-17 21:02:00,54.0,54.0,-100.00,NNE,19,6.0,15.0,99,0.00,,,0.01,0.000000,,2013-06-18 07:02:00,
2013-06-17 21:12:00,54.0,54.0,-100.00,NNE,19,6.0,15.0,99,0.00,,,0.01,0.000000,,2013-06-18 07:12:00,
2013-06-17 21:22:00,54.0,54.0,-100.00,NNE,19,6.0,15.0,99,0.00,,,0.01,0.000000,,2013-06-18 07:22:00,
2013-06-17 21:33:00,54.0,54.0,-100.00,NNE,19,6.0,15.0,99,0.00,,,0.01,0.000000,,2013-06-18 07:33:00,
2013-06-17 22:01:00,54.0,52.0,-100.00,North,1,6.0,12.0,94,0.00,,,0.01,0.000000,,2013-06-18 08:01:00,
2013-06-17 22:11:00,54.0,52.0,-100.00,North,1,6.0,12.0,94,0.00,,,0.01,0.000000,,2013-06-18 08:11:00,
2013-06-17 22:23:00,54.0,52.0,-100.00,North,1,6.0,12.0,94,0.00,,,0.01,0.000000,,2013-06-18 08:23:00,
2013-06-17 22:32:00,54.0,52.0,-100.00,North,1,6.0,12.0,94,0.00,,,0.01,0.000000,,2013-06-18 08:32:00,
2013-06-17 22:34:00,54.0,52.0,-100.00,North,358,6.0,13.0,94,0.00,,,0.01,0.000000,,2013-06-18 08:34:00,
2013-06-17 23:01:00,54.0,52.0,-100.00,North,358,6.0,13.0,94,0.00,,,0.01,0.000000,,2013-06-18 09:01:00,
2013-06-17 23:12:00,54.0,52.0,-100.00,North,358,6.0,13.0,94,0.00,,,0.01,0.000000,,2013-06-18 09:12:00,
2013-06-17 23:22:00,54.0,52.0,-100.00,North,358,6.0,13.0,94,0.00,,,0.01,0.000000,,2013-06-18 09:22:00,